www.pogodaiklimat.ru

Погода и климат >> Архив погоды >> Индия >> Kakinada


ПОГОДА в Kakinada

  • Прогноз погоды в Kakinada
  • Монитор погоды в Kakinada
  • Климат города

АРХИВ ПОГОДЫ в Kakinada

Время (UTC), дата Ветер
(напр.,м/с)
 
Видим.   Явления Облачность Т
(С)
Тd
(С)
f
(%)
Тe
(С)
Тes
(С)
Комфортность P
(гПа)
Po
(гПа)
Тmin
(С)
Tmax
(С)
R
(мм)
R24
(мм)
S
(см)
12 17.09 штиль 0 10 км 9/3 600 м
[Cb calv As op]
+30.0 +23.3 67 +40 +40 очень
душно
1003.5 1002.6 +32.9
15 17.09 штиль 0 4000 м 9/3 600 м
[Sc Ac trans]
+27.6 +23.8 80 +38 +38 очень
душно
1005.4 1004.5
18 17.09 штиль 0 4000 м 10/3 600 м
[Sc As op]
+26.6 +24.3 87 +37 +37 очень
душно
1005.3 1004.4
21 17.09 штиль 0 4000 м 10/3 600 м
[Sc As op]
+25.6 +23.9 90 +35 +35 очень
душно
1004.4 1003.5
00 18.09 штиль 0 4000 м 8/1 600 м
[Sc Ac trans]
+25.6 +23.9 90 +35 +35 очень
душно
1003.6 1002.7
03 18.09 штиль 0 10 км 6/0
[Ac trans]
+28.0 +24.6 82 +40 +46 очень
душно
1005.2 1004.3 +25.6 +32.9
06 18.09 штиль 0 10 км 8/3 600 м
[Sc Ac trans]
+30.6 +23.4 65 +41 +52 опасность
перегрева
1004.8 1003.9
09 18.09 штиль 0 10 км 6/3 600 м
[Sc Ac trans]
+31.0 +23.2 63 +41 +50 опасность
перегрева
1002.8 1001.9
12 18.09 штиль 0 10 км 10/4 600 м
[Sc Ac As]
+31.0 +24.8 70 +44 +44 опасность
перегрева
1003.0 1002.1 +33.1
15 18.09 штиль 0 4000 м 10/3 600 м
[Sc Ac As]
+29.4 +25.1 78 +43 +43 опасность
перегрева
1004.7 1003.8
18 18.09 штиль 0 4000 м 6/3 600 м
[Sc Ac trans]
+27.6 +25.3 87 +40 +40 очень
душно
1005.3 1004.4
21 18.09 штиль 0 4000 м 6/3 600 м
[Sc Ac trans]
+27.2 +24.9 87 +39 +39 очень
душно
1003.9 1003.0
00 19.09 штиль 0 4000 м 6/3 600 м
[Sc Ac trans]
+26.0 +24.0 89 +36 +36 очень
душно
1003.9 1003.0
03 19.09 штиль 0 10 км 8/3 600 м
[Sc Ci sp]
+29.0 +25.3 80 +42 +48 опасность
перегрева
1005.3 1004.4 +25.8 +33.1
06 19.09 З 2 10 км 4/1 600 м
[Sc Ci sp]
+34.0 +24.7 58 +47 +65 опасность
перегрева
1004.5 1003.6
09 19.09 штиль 0 10 км 3/1 600 м
[Sc Ci sp]
+34.6 +24.7 57 +48 +63 опасность
перегрева
1002.5 1001.6
12 19.09 штиль 0 10 км {гроза, дождь} 6/3 600 м
[Cu hum Ac trans]
+28.6 +26.1 86 +43 +43 опасность
перегрева
1001.3 1000.4 +35.6 6
15 19.09 штиль 0 4000 м {дождь} 9/3 600 м
[Sc Ac trans Cs]
+27.6 +24.7 84 +39 +39 очень
душно
1003.3 1002.4 7
18 19.09 штиль 0 4000 м 10/1 600 м
[Sc As op]
+27.4 +25.1 87 +39 +39 очень
душно
1002.7 1001.8 7
21 19.09 штиль 0 4000 м 9/1 600 м
[Sc As op]
+26.8 +24.2 86 +37 +37 очень
душно
1000.3 999.4 7
00 20.09 штиль 0 4000 м 6/0
[Ac trans]
+27.0 +25.0 89 +39 +39 очень
душно
1000.3 999.4 7
03 20.09 штиль 0 4000 м слабая морось 10/1 600 м
[Sc As op]
+27.2 +24.9 87 +39 +41 очень
душно
1002.9 1002.0 +26.5 +35.6 7
06 20.09 штиль 0 4000 м в посл. час дождь {морось} 10/3 600 м
[Sc Ac As]
+27.8 +25.8 89 +41 +47 опасность
перегрева
1000.9 1000.0 0.5
09 20.09 штиль 0 10 км 10/4 600 м
[Sc Ac As]
+27.6 +25.3 87 +40 +43 очень
душно
998.9 998.0 0.5
12 20.09 штиль 0 4000 м в посл. час дождь 10/3 600 м
[Sc Ac As]
+27.8 +25.8 89 +41 +42 опасность
перегрева
998.5 997.6 +28.6 1
15 20.09 штиль 0 4000 м в посл. час дождь 10/3 600 м
[Sc Ac As]
+27.6 +25.6 89 +41 +41 опасность
перегрева
999.3 998.4 2
18 20.09 штиль 0 4000 м слабый дождь 10/3 600 м
[Sc As op]
+27.0 +25.0 89 +39 +39 очень
душно
999.5 998.6 3
21 20.09 штиль 0 4000 м слабый дождь 10/3 600 м
[Sc As op]
+26.6 +24.9 90 +38 +38 очень
душно
998.2 997.3 3
00 21.09 З 2 4000 м слабый дождь 10/3 600 м
[Sc As op]
+24.6 +22.8 90 +33 +33 очень
душно
999.9 999.0 4
03 21.09 штиль 0 4000 м {дождь} 10/3 600 м
[Sc Ac As]
+26.0 +24.0 89 +36 +38 очень
душно
1002.4 1001.5 +23.4 +28.6 5
06 21.09 З 2 10 км 8/3 600 м
[Sc Ac trans Ci sp]
+31.0 +24.7 69 +44 +53 опасность
перегрева
1003.0 1002.1
09 21.09 штиль 0 10 км 5/3 600 м
[Sc Ac trans]
+32.6 +24.7 63 +46 +55 опасность
перегрева
1001.1 1000.2
12 21.09 штиль 0 10 км 4/3 600 м
[Cu Sc Ci sp]
+28.8 +23.0 71 +39 +39 очень
душно
1003.2 1002.3 +32.7
15 21.09 штиль 0 4000 м в посл. час дождь 3/0
[Ci sp]
+26.4 +23.5 84 +36 +36 очень
душно
1006.0 1005.1 0.2
18 21.09 штиль 0 4000 м {дождь} 8/4 600 м
[Sc Ac trans]
+27.2 +25.5 90 +40 +40 очень
душно
1006.8 1005.9 0.2
21 21.09 штиль 0 2000 м гроза, ливневой дождь 10/3 600 м
[Cb cap As op]
+23.0 +22.7 98 +32 +32 очень
душно
1006.9 1006.0 14
00 22.09 штиль 0 4000 м {дождь} 8/0
[Ac trans]
+23.2 +22.0 93 +32 +32 очень
душно
1007.2 1006.3 14
03 22.09 штиль 0 10 км 4/0
[Ac trans Ci sp]
+27.4 +23.3 78 +37 +45 очень
душно
1010.3 1009.4 +22.8 +32.7 14
06 22.09 В 2 10 км 5/3 600 м
[Cu Sc Ac trans Ci sp]
+31.4 +24.9 68 +45 +57 опасность
перегрева
1010.7 1009.8
09 22.09 штиль 0 4000 м гроза, ливневой дождь 9/4 600 м
[Cb cap As op]
+28.6 +25.5 83 +42 +45 опасность
перегрева
1008.7 1007.8 2
12 22.09 штиль 0 10 км {гроза, дождь} 9/4 600 м
[Cb calv Ac As]
+29.0 +25.3 80 +42 +42 опасность
перегрева
1009.1 1008.2 +31.9 2
15 22.09 штиль 0 4000 м 10/4 600 м
[Cu Sc Ac As]
+28.0 +25.4 86 +41 +41 опасность
перегрева
1011.0 1010.1 2
18 22.09 штиль 0 4000 м 8/3 600 м
[Cu Sc Ac trans Ci sp]
+27.8 +25.2 86 +40 +40 очень
душно
1011.4 1010.5 2
21 22.09 штиль 0 4000 м 8/3 600 м
[Cu Sc Ac trans Ci sp]
+27.6 +25.3 87 +40 +40 очень
душно
1010.7 1009.8 2
00 23.09 штиль 0 4000 м 10/4 600 м
[Cu Sc Ac As]
+27.4 +25.1 87 +39 +39 очень
душно
1011.9 1011.0
03 23.09 штиль 0 10 км слабая морось 9/4 600 м
[Cb calv Ac As]
+27.0 +25.3 90 +39 +42 очень
душно
1013.3 1012.4 +26.4 +31.9 3
06 23.09 штиль 0 10 км {морось} 5/4 600 м
[Cb calv Ac trans]
+32.0 +27.3 76 +50 +65 опасность
перегрева
1012.9 1012.0
09 23.09 штиль 0 10 км 3/3 600 м
[Cb calv]
+32.0 +26.4 72 +48 +60 опасность
перегрева
1010.5 1009.6
12 23.09 Ю 2 10 км 6/4 600 м
[Cu Sc Ac trans]
+30.6 +26.1 77 +46 +46 опасность
перегрева
1009.9 1009.0 +32.3
15 23.09 Ю 2 4000 м 5/3 600 м
[Cu Sc Ci sp]
+28.6 +26.1 86 +43 +43 опасность
перегрева
1011.8 1010.9
18 23.09 штиль 0 4000 м 5/3 600 м
[Cu Sc Ci sp]
+28.4 +25.6 85 +42 +42 опасность
перегрева
1012.8 1011.9
21 23.09 штиль 0 4000 м 5/3 600 м
[Cu Sc Ci sp]
+28.0 +25.2 85 +41 +41 опасность
перегрева
1011.0 1010.1
00 24.09 штиль 0 4000 м 5/3 600 м
[Cu Sc Ci sp]
+27.0 +24.7 87 +38 +38 очень
душно
1011.1 1010.2
03 24.09 штиль 0 10 км 6/4 600 м
[Sc Ci sp]
+29.6 +25.7 80 +44 +49 опасность
перегрева
1012.5 1011.6 +26.4 +32.3
06 24.09 штиль 0 10 км в посл. час дождь 8/5 600 м
[Cu Sc Ac trans Ci fib]
+30.8 +26.0 76 +46 +56 опасность
перегрева
1011.9 1011.0 0.7

 

Местоположение метеостанции Kakinada (Andhra Pradesh, Индия): широта 16.95 долгота 82.23 высота над уровнем моря 8 м.

В архиве по умолчанию представлена погода в Kakinada за последнюю неделю. Архивные данные за месяц целиком и за предыдущие месяцы, начиная с января 2011 года, Вы можете получить, выбрав интересующий диапазон дат из раскрывающегося списка и нажав кнопку "Ввод!".


*Определитесь, кто Вы:
робот инопланетянин человек

Внимание! Время в таблицах - всемирное. Для получения местного времени необходимо прибавить поправку, которая в Kakinada равна 5.5 ч.

Смотрите также архив погоды в соседних городах и на ближайших метеорологических станциях:

Погода в Tuni (Andhra Pradesh, Индия) (56 км)
Погода в Narsapur (Andhra Pradesh, Индия) (81 км)
Погода в Visakhapatnam (Andhra Pradesh, Индия) (136 км)
Погода в Visakhapatnam Walt (Andhra Pradesh, Индия) (141 км)
Погода в Machilipatnam (Andhra Pradesh, Индия) (142 км)
Погода в Gannavaram (Andhra Pradesh, Индия) (159 км)
Погода в Bhadrachalam (Telangana, Индия) (164 км)
Погода в Nandigama (Andhra Pradesh, Индия) (208 км)
Погода в Koraput (Orissa, Индия) (214 км)
Погода в Bapatla (Andhra Pradesh, Индия) (221 км)

Пояснения к столбцам:

Ветер - указаны скорость ветра в м/с - средняя за 10 мин, порывы в срок и между сроками (в фигурных скобках) и направление, откуда дует ветер: С - северный, СВ - северо-восточный, В - восточный, ЮВ - юго-восточный, Ю - южный, ЮЗ - юго-западный, З - западный, СЗ - северо-западный.
Видимость - горизонтальная дальность видимости в метрах или километрах. При видимости от 1 до 10 км при отсутствии осадков обычно наблюдается дымка, при ухудшении видимости до 1 км и менее - туман. В сухую погоду видимость может ухудшаться дымом, пылью или мглою.
Явления - указаны атмосферные явления, наблюдавшиеся в срок или в последний час перед сроком; фигурными скобками обозначены явления, наблюдавшиеся между сроками (за 1-3 часа до срока); квадратными скобками обозначены град или гололедные отложения с указанием их диаметра в мм.
Облачность - указаны через наклонную черту общая и нижняя облачность в баллах и высота нижней границы облаков в метрах; квадратными скобками обозначены формы облаков: Ci - перистые, Cs - перисто-слоистые, Cc - перисто-кучевые, Ac - высококучевые, As - высокослоистые, Sc - слоисто-кучевые, Ns - слоисто-дождевые, Cu - кучевые, Cb - кучево-дождевые. Подробнее классификацию облаков см. в Атласе облаков (PDF).
T - Температура воздуха - температура, измеренная на высоте 2 м над землей.
Td - Температура точки росы - температура, при понижении до которой содержащийся в воздухе водяной пар достигнет насыщения.
f - Относительная влажность воздуха - влажноcть воздуха, измеренная на высоте 2 м над землей.
Te - Эффективная температура - температура, которую ощущает одетый по сезону человек в тени. Характеристика душности погоды. При расчете учитывается влияние влажности воздуха и скорости ветра на теплоощущения человека.
Tes - Эффективная температура на солнце - температура, которую ощущает человек, с поправкой на солнечный нагрев. Характеристика знойности погоды. Зависит от высоты солнца над горизонтом, облачности и скорости ветра. Ночью, в пасмурную погоду, а также при ветре 12 м/с и более поправка равна нулю.
P - Атмосферное давление - приведенное к уровню моря атмосферное давление.
Po - Атмосферное давление - измеренное на уровне метеостанции атмосферное давление.
Tmin - Минимальная температура - минимум температуры воздуха на высоте 2 м над землей.
Tmax - Максимальная температура - максимум температуры воздуха на высоте 2 м над землей.
R - Количество осадков - Количество выпавших осадков за период времени, мм. При наведении курсора мыши на число - период времени, за который выпало указанное количество осадков.
R24 - Количество осадков - Количество выпавших осадков за 24 часа, мм.
S - Снежный покров - Высота снежного покрова, см. При наведении курсора мыши на число - состояние снежного покрова и степень покрытия местности в баллах.